Stations météo

réclame
Mon MeteoGroup
Ajaccio, France (7761): Température de l'air & dewpoint: 14.11.2017 12:00:00 - 20.11.2017 12:00:00 (CET)Ajaccio, France (7761): Température de l'air 5cm: 14.11.2017 12:00:00 - 20.11.2017 12:00:00 (CET)Ajaccio, France (7761): Température de l'air -20cm & Température de l'air -100cm: 14.11.2017 12:00:00 - 20.11.2017 12:00:00 (CET)Ajaccio, France (7761): Vitesse du vent & gusts: 14.11.2017 12:00:00 - 20.11.2017 12:00:00 (CET)Ajaccio, France (7761): Direction du vent: 14.11.2017 12:00:00 - 20.11.2017 12:00:00 (CET)Ajaccio, France (7761): reduced air pressure: 14.11.2017 12:00:00 - 20.11.2017 12:00:00 (CET)Ajaccio, France (7761): visibility: 14.11.2017 12:00:00 - 20.11.2017 12:00:00 (CET)Ajaccio, France (7761): Ensoleillement: 14.11.2017 12:00:00 - 20.11.2017 12:00:00 (CET)Ajaccio, France (7761): Quantités de précipitations: 14.11.2017 12:00:00 - 20.11.2017 12:00:00 (CET)
Date & Time tt [°C] td [°C] tt 5cm [°C] tt -20cm [°C] tt -100cm [°C] ff [km/h] ff [knt] fx [km/h] fx [knt] dd ppp [hPa] vv [km] sd [min] rr [mm]
20.11.2017 12:00:00 16,7 8,9 21,2 12,2 17,0 11 6 16 9 W 1020,2 10 60 0,0
20.11.2017 11:00:00 15,7 8,2 17,5 12,2 16,9 4 2 13 7 - 1020,6 10 60 0,0
20.11.2017 10:00:00 12,3 6,3 11,6 12,4 17,0 8 4 14 8 NNE 1020,4 10 60 0,0
20.11.2017 09:00:00 8,5 3,9 6,9 12,5 16,9 9 5 19 10 NNE 1020,1 10 60 0,0
20.11.2017 08:00:00 6,1 3,1 4,6 12,6 17,0 11 6 18 10 NE 1019,5 10 10 0,0
20.11.2017 07:00:00 5,9 2,5 4,6 12,7 17,0 12 6 21 12 NNE 1018,9 25 0 0,0
20.11.2017 06:00:00 6,2 2,6 5,1 12,8 17,0 13 7 20 11 NNE 1018,6 10 0 0,0
20.11.2017 05:00:00 6,1 2,4 4,9 12,9 17,0 13 7 21 11 NE 1018,3 10 0 0,0
20.11.2017 04:00:00 5,9 2,5 5,0 13,0 17,0 9 5 19 11 NE 1018,1 10 0 0,0
20.11.2017 03:00:00 6,0 3,2 5,2 13,2 17,0 11 6 23 13 NE 1018,0 10 0 0,0
20.11.2017 02:00:00 6,1 3,6 5,2 13,3 17,1 13 7 20 11 NE 1018,0 10 0 0,0
20.11.2017 01:00:00 6,5 4,3 5,0 13,4 17,0 11 6 19 10 NNE 1017,7 10 0 0,0
20.11.2017 00:00:00 6,1 4,4 5,2 13,4 17,1 9 5 14 8 ENE 1017,6 8 0 0,0
19.11.2017 23:00:00 6,8 5,1 5,7 13,5 17,0 9 5 13 7 ENE 1017,0 8 0 0,0
19.11.2017 22:00:00 7,5 6,0 6,3 13,5 17,0 9 5 16 8 NE 1016,6 9 0 0,0
19.11.2017 21:00:00 8,1 6,6 6,6 13,5 17,1 9 5 13 7 NE 1016,1 8 0 0,0
19.11.2017 20:00:00 9,2 6,6 7,5 13,4 17,0 4 2 7 4 NE 1015,5 10 0 0,0
19.11.2017 19:00:00 11,5 7,4 8,5 13,4 17,1 4 2 10 5 NE 1015,0 21 0 0,0
19.11.2017 18:00:00 13,3 7,5 12,0 13,3 17,1 8 4 13 7 SSW 1014,4 10 0 0,0
19.11.2017 17:00:00 13,9 7,6 13,3 13,1 17,0 5 3 16 8 WSW 1013,9 10 41 0,0
19.11.2017 16:00:00 14,5 7,8 15,0 13,0 17,1 9 5 19 10 SW 1013,7 10 45 0,0
19.11.2017 15:00:00 15,6 8,1 16,5 12,8 17,0 11 6 23 12 SSW 1013,7 10 54 0,0
19.11.2017 14:00:00 15,2 8,0 15,7 12,7 17,1 13 7 29 15 WSW 1014,3 10 33 0,0
19.11.2017 13:00:00 15,1 8,6 16,9 12,7 17,1 18 10 33 18 SW 1014,4 10 49 0,0
19.11.2017 12:00:00 16,5 10,6 18,1 12,7 17,1 13 7 19 11 SW 1014,7 10 55 0,0
19.11.2017 11:00:00 15,5 8,7 14,1 12,8 17,1 0 0 11 6 N 1015,4 10 20 0,0
19.11.2017 10:00:00 12,6 7,9 10,2 12,9 17,1 8 4 15 8 NNE 1016,0 10 46 0,0
19.11.2017 09:00:00 9,3 6,4 8,4 12,9 17,1 11 6 18 10 NNE 1016,2 40 39 0,0
19.11.2017 08:00:00 7,6 5,2 6,1 13,0 17,1 11 6 20 11 NNE 1016,0 10 9 0,0
19.11.2017 07:00:00 7,2 5,0 6,4 13,2 17,1 13 7 19 11 NNE 1016,0 10 0 0,0
19.11.2017 06:00:00 7,7 5,5 6,8 13,2 17,1 15 8 19 10 NNE 1016,0 10 0 0,0
19.11.2017 05:00:00 8,2 5,8 7,3 13,3 17,1 9 5 19 11 NNE 1016,4 10 0 0,0
19.11.2017 04:00:00 9,1 6,9 8,0 13,4 17,2 13 7 20 11 NNE 1016,6 10 0 0,0
19.11.2017 03:00:00 8,9 7,2 7,8 13,4 17,2 9 5 17 9 NNE 1016,8 10 0 0,0
19.11.2017 02:00:00 9,6 7,7 8,8 13,4 17,2 9 5 19 10 NNE 1017,0 10 0 0,0
19.11.2017 01:00:00 10,0 8,3 9,2 13,5 17,1 11 6 16 8 NNE 1017,4 10 0 0,0
19.11.2017 00:00:00 10,4 9,0 8,9 13,5 17,2 9 5 15 8 NE 1017,8 10 0 0,0
18.11.2017 23:00:00 10,2 8,6 9,2 13,5 17,2 8 4 13 7 NE 1017,6 8 0 0,0
18.11.2017 22:00:00 11,3 9,4 10,2 13,5 17,2 8 4 11 6 NE 1017,6 8 0 0,0
18.11.2017 21:00:00 11,8 9,9 10,8 13,5 17,2 8 4 11 6 NE 1017,4 7 0 0,0
18.11.2017 20:00:00 12,2 9,8 11,3 13,4 17,2 8 4 10 6 NE 1017,3 8 0 0,0
18.11.2017 19:00:00 12,9 10,3 12,2 13,3 17,2 8 4 11 6 NE 1017,2 7 0 0,0
18.11.2017 18:00:00 13,5 10,1 12,3 13,2 17,2 5 3 7 4 E 1016,7 10 0 0,0
18.11.2017 17:00:00 15,5 10,3 13,9 13,0 17,2 5 3 11 6 - 1016,4 10 35 0,0
18.11.2017 16:00:00 16,9 10,5 16,6 12,9 17,2 8 4 16 8 SW 1016,1 10 60 0,0
18.11.2017 15:00:00 17,4 11,0 18,0 12,7 17,2 11 6 16 9 SW 1016,0 10 60 0,0
18.11.2017 14:00:00 17,4 10,7 22,1 12,6 17,2 11 6 18 10 SW 1016,0 10 60 0,0
18.11.2017 13:00:00 17,2 10,8 23,0 12,5 17,2 9 5 14 7 SW 1016,3 10 60 0,0
18.11.2017 12:00:00 16,9 11,2 21,6 12,5 17,2 8 4 11 6 WSW 1016,5 10 60 0,0
18.11.2017 11:00:00 15,5 9,6 18,9 12,5 17,3 5 3 9 5 - 1016,8 10 60 0,0
18.11.2017 10:00:00 13,3 9,7 14,1 12,6 17,3 5 3 12 6 NE 1016,5 10 60 0,0
18.11.2017 09:00:00 10,2 7,8 7,5 12,6 17,3 8 4 17 9 NNE 1016,6 10 49 0,0
18.11.2017 08:00:00 7,9 6,2 7,0 12,7 17,3 8 4 17 9 NE 1016,2 10 9 0,0
18.11.2017 07:00:00 8,1 6,6 6,7 12,9 17,3 13 7 19 11 NE 1015,7 10 0 0,0
18.11.2017 06:00:00 8,0 6,3 7,1 12,9 17,3 12 7 17 9 NE 1015,6 30 0 0,0
18.11.2017 05:00:00 8,9 7,0 7,8 13,0 17,3 11 6 18 10 NNE 1015,7 10 0 0,0
18.11.2017 04:00:00 8,6 6,9 7,5 13,0 17,3 11 6 16 9 NNE 1015,7 10 0 0,0
18.11.2017 03:00:00 7,9 6,4 6,6 13,1 17,3 11 6 19 11 NE 1016,2 10 0 0,0
18.11.2017 02:00:00 8,3 6,8 7,4 13,2 17,3 9 5 18 10 NE 1016,2 10 0 0,0
18.11.2017 01:00:00 8,3 6,6 7,6 13,3 17,3 9 5 16 9 NE 1016,4 10 0 0,0
18.11.2017 00:00:00 9,0 7,3 7,9 13,3 17,3 9 5 17 9 NNE 1016,5 10 0 0,0
17.11.2017 23:00:00 8,8 7,1 8,0 13,4 17,3 11 6 16 9 NE 1016,5 10 0 0,0
17.11.2017 22:00:00 9,4 7,5 8,6 13,4 17,3 9 5 15 8 NE 1016,5 10 0 0,0
17.11.2017 21:00:00 9,7 7,6 8,9 13,4 17,3 11 6 16 9 NE 1016,2 9 0 0,0
17.11.2017 20:00:00 10,9 8,5 10,1 13,4 17,4 11 6 15 8 NNE 1016,1 10 0 0,0
17.11.2017 19:00:00 11,8 9,5 10,6 13,3 17,4 11 6 14 8 NE 1015,8 10 0 0,0
17.11.2017 18:00:00 13,0 9,8 11,6 13,2 17,4 5 3 9 5 ENE 1015,6 10 0 0,0
17.11.2017 17:00:00 15,3 10,1 13,7 13,0 17,4 5 3 10 5 SSW 1015,3 10 46 0,0
17.11.2017 16:00:00 16,9 11,0 16,3 12,8 17,4 8 4 16 9 SSW 1015,2 10 60 0,0
17.11.2017 15:00:00 17,5 11,3 17,4 12,6 17,4 11 6 17 9 S 1015,4 10 60 0,0
17.11.2017 14:00:00 17,3 9,7 21,3 12,5 17,4 13 7 23 13 SSW 1015,7 10 60 0,0
17.11.2017 13:00:00 17,2 9,4 22,5 12,5 17,4 10 5 13 7 WSW 1015,7 60 60 0,0
17.11.2017 12:00:00 17,0 8,4 23,9 12,4 17,4 5 3 9 5 - 1016,1 10 60 0,0
17.11.2017 11:00:00 15,9 8,1 16,8 12,5 17,4 4 2 8 5 - 1016,8 10 60 0,0
17.11.2017 10:00:00 12,6 8,5 14,1 12,6 17,4 8 4 14 8 NE 1016,7 10 60 0,0
17.11.2017 09:00:00 9,9 6,8 8,4 12,6 17,4 9 5 17 9 NNE 1016,8 10 60 0,0
17.11.2017 08:00:00 7,0 5,0 6,1 12,8 17,5 9 5 16 9 NE 1016,4 10 14 0,0
17.11.2017 07:00:00 7,1 5,4 6,1 12,8 17,5 11 6 20 11 NNE 1016,0 10 0 0,0
17.11.2017 06:00:00 6,9 5,7 5,4 13,0 17,5 11 6 16 9 NE 1015,9 10 0 0,0
17.11.2017 05:00:00 6,9 5,4 6,1 13,1 17,5 9 5 19 10 NE 1015,9 10 0 0,0
17.11.2017 04:00:00 7,5 6,1 6,1 13,1 17,5 11 6 16 9 NNE 1015,9 10 0 0,0
17.11.2017 03:00:00 7,3 5,9 6,4 13,3 17,5 11 6 15 8 NE 1016,4 10 0 0,0
17.11.2017 02:00:00 7,4 6,0 6,1 13,4 17,5 9 5 17 9 ENE 1016,6 10 0 0,0
17.11.2017 01:00:00 7,9 6,5 7,0 13,4 17,5 8 4 16 9 NE 1016,7 10 0 0,0
17.11.2017 00:00:00 8,7 7,0 7,7 13,5 17,5 9 5 14 8 NNE 1016,9 10 0 0,0
16.11.2017 23:00:00 8,8 7,2 8,0 13,5 17,5 9 5 17 9 NNE 1016,8 10 0 0,0
16.11.2017 22:00:00 9,2 7,8 8,4 13,5 17,6 9 5 15 8 NE 1016,8 10 0 0,0
16.11.2017 21:00:00 10,0 8,4 8,8 13,5 17,6 8 4 14 7 NNE 1016,6 10 0 0,0
16.11.2017 20:00:00 10,8 8,9 9,9 13,5 17,6 9 5 13 7 NE 1016,4 10 0 0,0
16.11.2017 19:00:00 11,9 9,5 10,7 13,4 17,6 8 4 11 6 ENE 1016,3 10 0 0,0
16.11.2017 18:00:00 13,6 10,2 11,6 13,3 17,6 5 3 7 4 - 1016,1 10 0 0,0
16.11.2017 17:00:00 15,6 9,9 13,8 13,1 17,6 4 2 15 8 - 1016,1 10 54 0,0
16.11.2017 16:00:00 16,6 10,9 16,3 12,9 17,6 13 7 18 10 SW 1015,9 10 60 0,0
16.11.2017 15:00:00 17,3 10,9 17,7 12,8 17,6 11 6 18 10 SW 1015,9 10 60 0,0
16.11.2017 14:00:00 17,8 11,4 21,8 12,6 17,7 13 7 18 10 SSW 1016,2 10 60 0,0
16.11.2017 13:00:00 17,5 11,5 21,3 12,5 17,7 13 7 17 9 SW 1016,6 10 60 0,0
16.11.2017 12:00:00 17,4 10,7 21,8 12,5 17,7 8 4 13 7 SW 1017,2 10 60 0,0
16.11.2017 11:00:00 16,8 9,0 20,2 12,5 17,7 5 3 9 5 - 1017,5 10 60 0,0
16.11.2017 10:00:00 13,7 9,1 14,2 12,5 17,7 4 2 15 8 - 1017,3 10 60 0,0
16.11.2017 09:00:00 10,3 7,4 8,1 12,6 17,7 9 5 16 9 NE 1017,3 10 60 0,0
16.11.2017 08:00:00 8,2 6,3 6,3 12,7 17,7 11 6 18 10 NE 1016,8 10 2 0,0
16.11.2017 07:00:00 7,4 6,0 6,3 12,7 17,7 13 7 16 9 NNE 1016,3 45 0 0,0
16.11.2017 06:00:00 7,9 6,7 6,9 12,8 17,8 13 7 18 10 NE 1016,0 10 0 0,0
16.11.2017 05:00:00 9,0 7,9 7,5 12,8 17,8 11 6 15 8 NE 1015,8 10 0 0,0
16.11.2017 04:00:00 9,7 8,3 8,2 12,8 17,8 9 5 11 6 NE 1015,6 10 0 0,0
16.11.2017 03:00:00 10,0 8,3 8,7 12,9 17,8 5 3 11 6 NE 1015,7 10 0 0,2
16.11.2017 02:00:00 10,0 7,6 8,3 12,9 17,8 4 2 11 6 E 1015,6 10 0 0,2
16.11.2017 01:00:00 9,8 6,9 8,5 13,0 17,8 9 5 17 9 NE 1015,6 10 0 0,0
16.11.2017 00:00:00 9,2 5,7 7,9 13,1 17,8 8 4 14 8 NE 1016,0 10 0 0,0
15.11.2017 23:00:00 8,5 5,9 7,9 13,0 17,8 9 5 15 8 NE 1016,0 10 0 0,0
15.11.2017 22:00:00 9,6 5,8 8,5 13,1 17,9 11 6 16 9 NE 1016,0 10 0 0,0
15.11.2017 21:00:00 10,7 6,4 8,9 13,1 17,9 9 5 12 7 ENE 1015,7 10 0 0,0
15.11.2017 20:00:00 11,6 6,5 10,1 13,0 17,9 5 3 16 9 ENE 1015,6 10 0 0,0
15.11.2017 19:00:00 12,5 6,5 10,8 12,9 17,9 5 3 13 7 - 1015,2 10 0 0,0
15.11.2017 18:00:00 13,6 6,5 12,2 12,8 17,9 8 4 14 8 NE 1015,0 10 0 0,0
15.11.2017 17:00:00 15,9 6,3 14,1 12,7 17,9 5 3 13 7 SW 1014,2 10 35 0,0
15.11.2017 16:00:00 16,8 7,7 16,5 12,5 17,9 4 2 10 5 - 1013,9 10 10 0,0
15.11.2017 15:00:00 17,0 6,2 17,9 12,4 18,0 5 3 11 6 - 1013,3 10 45 0,0
15.11.2017 14:00:00 16,9 6,4 18,1 12,3 18,0 5 3 15 8 SW 1013,1 10 12 0,0
15.11.2017 13:00:00 16,9 7,0 19,0 12,2 18,0 9 5 13 7 SW 1013,3 30 48 0,0
15.11.2017 12:00:00 17,0 5,9 17,5 12,2 18,0 2 1 8 4 - 1013,7 10 24 0,0
15.11.2017 11:00:00 15,4 5,0 14,3 12,2 18,0 4 2 11 6 - 1013,9 10 22 0,0
15.11.2017 10:00:00 13,2 5,4 12,4 12,2 18,0 4 2 13 7 - 1013,4 10 10 0,0
15.11.2017 09:00:00 11,3 5,2 9,4 12,2 18,0 4 2 16 9 - 1012,9 10 0 0,0
15.11.2017 08:00:00 10,0 5,0 8,6 12,2 18,0 6 3 11 6 ESE 1012,1 47 0 0,0
15.11.2017 07:00:00 10,7 3,9 8,3 12,3 18,0 8 5 16 9 NNE 1011,8 45 0 0,0
15.11.2017 06:00:00 10,4 4,1 7,8 12,3 18,1 9 5 14 8 N 1011,2 10 0 0,0
15.11.2017 05:00:00 10,1 4,0 8,7 12,3 18,1 4 2 12 6 - 1011,4 10 0 0,0
15.11.2017 04:00:00 10,1 3,8 8,1 12,4 18,1 4 2 14 8 E 1011,5 10 0 0,0
15.11.2017 03:00:00 8,9 3,9 7,4 12,4 18,1 4 2 11 6 - 1011,6 10 0 0,0
15.11.2017 02:00:00 8,7 3,7 7,0 12,5 18,1 8 4 12 6 E 1011,6 10 0 0,0
15.11.2017 01:00:00 9,4 3,6 7,8 12,5 18,2 5 3 16 9 NE 1012,3 10 0 0,0
15.11.2017 00:00:00 9,4 3,6 8,3 12,6 18,2 5 3 14 8 NE 1012,2 10 0 0,0
14.11.2017 23:00:00 10,0 3,3 7,5 12,6 18,2 5 3 10 5 - 1012,6 10 0 0,0
14.11.2017 22:00:00 9,4 3,6 7,9 12,6 18,2 9 5 22 12 E 1012,7 52 0 0,0
14.11.2017 21:00:00 9,6 3,8 8,4 12,6 18,2 11 6 18 10 ENE 1012,5 10 0 0,0
14.11.2017 20:00:00 9,9 3,4 8,4 12,6 18,2 8 4 22 12 ESE 1012,1 10 0 0,0
14.11.2017 19:00:00 13,2 1,8 11,7 12,6 18,3 13 7 21 11 NNE 1011,9 10 0 0,0
14.11.2017 18:00:00 13,8 1,7 12,3 12,5 18,2 8 4 34 18 E 1011,3 10 0 0,0
14.11.2017 17:00:00 13,6 2,5 12,8 12,4 18,2 24 13 45 25 N 1010,7 10 46 0,0
14.11.2017 16:00:00 14,1 2,6 13,2 12,3 18,3 26 14 51 28 N 1010,3 10 31 0,0
14.11.2017 15:00:00 13,7 2,9 13,5 12,2 18,3 16 9 47 26 N 1010,0 10 7 0,0
14.11.2017 14:00:00 15,0 3,2 14,4 12,0 18,3 24 13 53 28 NNE 1009,9 10 57 0,0
14.11.2017 13:00:00 14,7 2,6 14,8 12,0 18,3 34 18 47 25 N 1009,6 10 53 0,0
14.11.2017 12:00:00 14,1 2,9 13,6 12,1 18,3 28 15 55 30 N 1009,5 10 28 0,0

tt = Température de l'air
td = dewpoint
tt 5cm = Température de l'air 5cm
tt -20cm = Température de l'air -20cm
tt -100cm = Température de l'air -100cm
ff = Vitesse du vent
fx = gusts
dd = Direction du vent
ppp = reduced air pressure
vv = visibility
sd = Ensoleillement
rr = Quantités de précipitations

stations d'obs. à proximité